STARLINK-31959, 59925

Orbit data source: Space-Track

STARLINK-31959, 59925 is a payload satellite owned by SpaceX/Seattle (US) in LEO that was launched on Sat, 01 Jun 2024 UTC via an FALCON 9 launch vehicle from the Air Force Eastern Test Range (AFETR). Payload-class satellites include a variety of spacecraft equipped with specific instruments for various scientific and technological missions. These include communications satellites like Starlink; space stations such as the ISS; scientific satellites like the Hubble; Earth observation satellites from companies like Planet Labs, Umbra, and HawkEye 360; GPS; miniature CubeSats for education and research; and military/defense satellites.

Loading next visibility...
Identifier
59925, 2024-106D
Orbit
LEO
Country
Flag of USUS
Related business
Manufacturer
SpaceX/Seattle
Mission
Operational Commercial Communications
Bus & Motor
STARLINK V2M, Unknown motor
Mass
730 kg wet, ~700 kg dry
Launch date (UTC)
2024-06-01 (2 years ago)
Launch vehicle
FALCON 9
Launch site
Air Force Eastern Test Range (AFETR)
Object type
Payload
Rocket body
Debris
Shape & HBR
Box + 2 Pan, 17.7 m
Radar Cross Section
33.884 m², Large (>1 m²)

Expand to show TLE details & history
Last TLE update: 13 hours ago

TLE from 13 hours ago
0 STARLINK-31959
1 59925U 24106D   26035.65225559  .00000692  00000-0  34652-4 0  9999
2 59925  43.0005 155.2629 0000777 247.3896 112.6873 15.27577676 95515
Epoch: 2026-02-04T15:39Z
TLE epoch observation values (Epoch: 2026-02-04T15:39:14.882Z)
Latitude
-0.00007°
Longitude
145.63505°
Altitude
483.037 km
Speed
7.626 km/s
True Right ascension
10h 21m 03s
True Declination
0° 00' 00"
Sunlit
Object was in full shadow at epoch
Visualization orbit readout
Latitude
Unknown
Longitude
Unknown
Altitude
Unknown
Speed
Unknown
Apparent Right ascension
Unknown
Apparent Declination
Unknown
Sunlit
N/A
Visualization observer readout
Local Sidereal Time
06:13:43
Azimuth
Unknown
Elevation
Unknown
Doppler factor
Unknown
Orbital elements
Apogee altitude
485.534 km
Perigee altitude
484.468 km
Semi-major axis
6,863.138 km
Eccentricity
0.00008
Inclination
43.0005°
RAAN
155.2629°
Arg. of periapsis
247.3896°
True anomaly
112.69551°
Mean anomaly
112.6873°
Eccentric anomaly
112.69141°
Mean motion
3.81732 °/min
Orbital period
94.31 mins
BSTAR
0.000034652
Loading maneuver chart data...
Computing Atmospheric mass density...
Loading historical data...
Loading historical data...
Loading historical data...
Loading historical data...
Loading historical data...
Loading historical data...
Loading historical data...

Documentation

Showing up to 5 results
|